STARLINK-2411, 47826

Orbit data source: Space-Track

STARLINK-2411, 47826 is a payload satellite owned by SpaceX/Seattle (US) in LEO that was launched on Thu, 11 Mar 2021 UTC via an FALCON 9 launch vehicle from the Air Force Eastern Test Range (AFETR). Payload-class satellites include a variety of spacecraft equipped with specific instruments for various scientific and technological missions. These include communications satellites like Starlink; space stations such as the ISS; scientific satellites like the Hubble; Earth observation satellites from companies like Planet Labs, Umbra, and HawkEye 360; GPS; miniature CubeSats for education and research; and military/defense satellites.

Loading next visibility...
Identifier
47826, 2021-018AR
Orbit
LEO
Country
Flag of USUS
Related business
Manufacturer
SpaceX/Seattle
Mission
Operational Commercial Communications
Bus & Motor
STARLINK, Unknown motor
Mass
260 kg wet, ~248 kg dry
Launch date (UTC)
2021-03-11 (5 years ago)
Launch vehicle
FALCON 9
Launch site
Air Force Eastern Test Range (AFETR)
Object type
Payload
Rocket body
Debris
Shape & HBR
Box + 1 Pan, 10.1 m
Radar Cross Section
13.562 m², Large (>1 m²)

Expand to show TLE details & history
Last TLE update: 22 hours ago

TLE from 22 hours ago
0 STARLINK-2411
1 47826U 21018AR  25291.95432149  .00000375  00000-0  44078-4 0  9997
2 47826  53.0530 167.8948 0001443  91.3012 268.8142 15.06400207255239
Epoch: 2025-10-18T22:54Z
TLE epoch observation values (Epoch: 2025-10-18T22:54:13.376Z)
Latitude
-0.00006°
Longitude
156.66109°
Altitude
548.111 km
Speed
7.589 km/s
True Right ascension
11h 11m 34s
True Declination
0° 00' 00"
Sunlit
Object was in daylight at epoch
Visualization orbit readout
Latitude
Unknown
Longitude
Unknown
Altitude
Unknown
Speed
Unknown
Apparent Right ascension
Unknown
Apparent Declination
Unknown
Sunlit
N/A
Visualization observer readout
Local Sidereal Time
16:01:34
Azimuth
Unknown
Elevation
Unknown
Doppler factor
Unknown
Orbital elements
Apogee altitude
548.481 km
Perigee altitude
546.483 km
Semi-major axis
6,925.619 km
Eccentricity
0.00014
Inclination
53.053°
RAAN
167.8948°
Arg. of periapsis
91.3012°
True anomaly
268.79767°
Mean anomaly
268.8142°
Eccentric anomaly
268.80593°
Mean motion
3.76578 °/min
Orbital period
95.6 mins
BSTAR
0.000044078
Loading maneuver chart data...
Computing Atmospheric mass density...

Documentation

Showing up to 5 results
|